EW3476 Weather Reports


time (UTC)temp
F
wind
direction
speed
knots
gust
knots
rain 1hr
in
rain 24hr
in
rain mn
in
humidity
%
barometer
mb
20260505124503 58 46 3.5 7.0 0.00 0.11 0.11 90 1008.6
20260505123603 58 63 5.2 11.3 0.00 0.11 0.11 90 1008.5
20260505122918 58 55 3.5 9.6 0.00 0.11 0.11 91 1008.3
20260505122017 58 60 3.5 8.7 0.00 0.11 0.11 93 1008.0
20260505121133 58 57 4.3 8.7 0.00 0.11 0.11 93 1007.9
20260505120004 58 41 3.5 9.6 0.00 0.11 0.11 94 1008.1
20260505114728 59 40 3.5 10.4 0.00 0.11 0.11 94 1008.0
20260505112703 59 35 3.5 7.8 0.00 0.11 0.11 95 1007.7
20260505111803 59 49 3.5 9.6 0.00 0.11 0.11 95 1006.8
20260505110903 59 345 0.9 3.5 0.00 0.11 0.11 95 1008.2
20260505102016 59 333 1.7 9.6 0.01 0.11 0.11 94 1007.7
20260505100903 60 249 0.9 2.6 0.01 0.11 0.11 94 1006.9
20260505100217 60 249 0.0 0.9 0.01 0.11 0.11 94 1006.9
20260505095403 60 249 0.0 1.7 0.02 0.11 0.11 93 1006.5
20260505094503 60 249 0.0 1.7 0.03 0.11 0.11 93 1006.7
20260505093603 60 226 0.0 3.5 0.04 0.11 0.11 92 1006.5
20260505092703 60 196 2.6 7.0 0.06 0.11 0.11 92 1006.1
20260505092018 60 172 5.2 10.4 0.06 0.10 0.10 92 1005.6
20260505090903 60 163 5.2 9.6 0.07 0.10 0.10 91 1004.9
20260505090003 61 150 2.6 8.7 0.07 0.09 0.09 92 1006.0
20260505085616 61 110 1.7 4.3 0.08 0.09 0.09 91 1006.4
20260505084503 62 338 0.9 2.6 0.08 0.08 0.08 90 1007.4
20260505083603 62 357 0.9 3.5 0.07 0.07 0.07 89 1007.9
20260505082703 62 145 0.9 4.3 0.05 0.05 0.05 88 1007.6
20260505081803 63 346 1.7 5.2 0.03 0.03 0.03 87 1007.4
20260505081117 63 337 1.7 7.8 0.03 0.03 0.03 86 1007.3
20260505080003 64 312 1.7 7.8 0.02 0.02 0.02 84 1006.8
20260505075403 64 207 1.7 7.8 0.01 0.01 0.01 82 1007.0
20260505074503 64 195 1.7 7.0 0.00 0.00 0.00 80 1007.1
20260505073603 64 181 1.7 6.1 0.00 0.00 0.00 79 1007.0
20260505072703 64 172 1.7 5.2 0.00 0.00 0.00 78 1007.0
20260505072017 64 182 1.7 7.0 0.00 0.00 0.00 77 1007.0
20260505070903 64 173 2.6 6.1 0.00 0.00 0.00 77 1007.0
20260505070003 64 177 2.6 6.1 0.00 0.00 0.00 77 1006.8
20260505065403 64 173 1.7 7.0 0.00 0.00 0.00 76 1006.8
20260505064503 64 176 1.7 7.0 0.00 0.00 0.00 76 1007.0
20260505063603 64 173 1.7 4.3 0.00 0.00 0.00 77 1007.4
20260505062703 64 186 1.7 3.5 0.00 0.00 0.00 77 1007.6
20260505061803 64 171 1.7 5.2 0.00 0.00 0.00 76 1007.6
20260505061118 64 173 1.7 5.2 0.00 0.00 0.00 77 1007.6
20260505060003 64 169 1.7 5.2 0.00 0.00 0.00 76 1007.6
20260505055403 64 170 1.7 5.2 0.00 0.00 0.00 76 1007.6
20260505054503 64 166 1.7 5.2 0.00 0.00 0.00 76 1007.6
20260505053603 64 177 1.7 7.8 0.00 0.00 0.00 76 1007.5
20260505052703 64 172 2.6 8.7 0.00 0.00 0.00 76 1007.6
20260505052016 64 171 2.6 5.2 0.00 0.00 0.00 75 1007.5
20260505050903 64 172 1.7 6.1 0.00 0.00 0.00 75 1007.7
20260505040903 66 176 0.9 3.5 0.00 0.00 0.00 72 1008.3
20260505040004 66 164 0.9 3.5 0.00 0.00 0.00 72 1008.5
20260505035403 66 161 0.9 1.7 0.00 0.00 0.00 72 1008.6
20260505034503 67 179 0.9 4.3 0.00 0.00 0.00 71 1008.7
20260505033817 67 195 0.9 5.2 0.00 0.00 0.00 70 1008.7
20260505032703 67 172 0.9 5.2 0.00 0.00 0.00 70 1008.7
20260505031803 68 182 1.7 7.0 0.00 0.00 0.00 69 1008.7
20260505030903 68 178 1.7 8.7 0.00 0.00 0.00 69 1008.6
20260505030003 68 171 1.7 7.8 0.00 0.00 0.00 69 1008.6
20260505025403 68 174 1.7 6.1 0.00 0.00 0.00 69 1008.7
20260505024503 68 178 1.7 7.8 0.00 0.00 0.00 68 1008.5
20260505023603 68 175 1.7 7.8 0.00 0.00 0.00 68 1008.3
20260505022703 68 173 2.6 7.0 0.00 0.00 0.00 68 1008.2
20260505021803 68 176 1.7 5.2 0.00 0.00 0.00 68 1008.1
20260505020903 69 167 0.9 8.7 0.00 0.00 0.00 68 1008.0
20260505020003 69 178 0.9 4.3 0.00 0.00 0.00 67 1007.9
20260505015403 70 170 0.9 4.3 0.00 0.00 0.00 66 1007.8
20260505014503 70 183 0.9 3.5 0.00 0.00 0.00 65 1007.7
20260505013603 70 172 0.9 4.3 0.00 0.00 0.00 64 1007.5
20260505012703 71 177 0.9 7.0 0.00 0.00 0.00 64 1007.3
20260505011803 71 180 0.9 4.3 0.00 0.00 0.00 63 1007.1
20260505010903 72 184 0.9 3.5 0.00 0.00 0.00 62 1007.0
20260505010003 72 188 0.9 3.5 0.00 0.00 0.00 60 1007.1
20260505005617 72 181 0.9 3.5 0.00 0.00 0.00 59 1007.0
20260505004503 73 178 0.9 3.5 0.00 0.00 0.00 57 1007.0
20260505003818 74 173 0.0 2.6 0.00 0.00 0.00 57 1006.9
20260505002703 74 170 0.9 9.6 0.00 0.00 0.00 56 1006.8
20260505001803 75 179 1.7 9.6 0.00 0.00 0.00 54 1006.7
20260505001118 75 173 1.7 5.2 0.00 0.00 0.00 54 1006.8
20260505000003 76 173 2.6 7.8 0.00 0.00 0.00 52 1006.8
20260504235403 76 172 2.6 8.7 0.00 0.00 0.00 52 1006.7
20260504234503 77 177 2.6 8.7 0.00 0.00 0.00 50 1006.7
20260504233603 78 175 2.6 7.8 0.00 0.00 0.00 49 1006.5
20260504232703 79 178 3.5 13.9 0.00 0.00 0.00 48 1006.5
20260504231803 80 175 4.3 13.9 0.00 0.00 0.00 46 1006.7
20260504230903 80 171 5.2 14.8 0.00 0.00 0.00 46 1006.7
20260504230003 81 171 4.3 11.3 0.00 0.00 0.00 46 1006.7
20260504225403 81 176 4.3 11.3 0.00 0.00 0.00 46 1006.7
20260504224503 82 177 3.5 8.7 0.00 0.00 0.00 46 1006.8
20260504223603 82 177 2.6 9.6 0.00 0.00 0.00 47 1006.8
20260504222703 82 175 4.3 13.0 0.00 0.00 0.00 46 1006.8
20260504222018 82 177 3.5 10.4 0.00 0.00 0.00 46 1006.8
20260504220903 82 171 4.3 12.2 0.00 0.00 0.00 48 1006.8
20260504220003 81 177 4.3 12.2 0.00 0.00 0.00 49 1006.9
20260504215403 81 174 3.5 12.2 0.00 0.00 0.00 47 1006.9
20260504214503 81 180 4.3 12.2 0.00 0.00 0.00 47 1006.9
20260504213603 81 175 5.2 13.0 0.00 0.00 0.00 50 1007.1
20260504212703 82 171 5.2 18.2 0.00 0.00 0.00 45 1007.1
20260504211803 82 177 3.5 8.7 0.00 0.00 0.00 46 1007.2
20260504210903 82 172 4.3 13.9 0.00 0.00 0.00 46 1007.3
20260504210004 83 175 4.3 14.8 0.00 0.00 0.00 46 1007.4
20260504205403 83 179 3.5 10.4 0.00 0.00 0.00 46 1007.5
20260504204503 83 173 4.3 9.6 0.00 0.00 0.00 46 1007.5
20260504203603 83 172 3.5 10.4 0.00 0.00 0.00 50 1007.6
20260504202703 83 173 5.2 17.4 0.00 0.00 0.00 47 1007.8
20260504201803 83 176 4.3 15.6 0.00 0.00 0.00 48 1008.0
20260504200903 82 175 3.5 13.0 0.00 0.00 0.00 48 1008.0
20260504200218 82 174 5.2 13.0 0.00 0.00 0.00 46 1008.1
20260504195617 82 173 4.3 10.4 0.00 0.00 0.00 47 1008.1
20260504194503 82 174 3.5 10.4 0.00 0.00 0.00 47 1008.2
20260504193603 82 182 2.6 12.2 0.00 0.00 0.00 48 1008.3
20260504192703 82 178 3.5 11.3 0.00 0.00 0.00 48 1008.4
20260504191803 82 170 4.3 12.2 0.00 0.00 0.00 50 1008.4
20260504190903 82 178 4.3 12.2 0.00 0.00 0.00 46 1008.5
20260504190003 82 177 4.3 12.2 0.00 0.00 0.00 47 1008.4
20260504185403 82 176 5.2 20.9 0.00 0.00 0.00 51 1008.4
20260504184716 82 170 5.2 20.9 0.00 0.00 0.00 47 1008.4
20260504183603 81 172 5.2 13.9 0.00 0.00 0.00 48 1008.6
20260504182703 81 171 5.2 14.8 0.00 0.00 0.00 49 1008.6
20260504181803 81 166 6.1 17.4 0.00 0.00 0.00 49 1008.5
20260504180903 82 168 5.2 16.5 0.00 0.00 0.00 47 1008.5
20260504180003 82 171 4.3 11.3 0.00 0.00 0.00 49 1008.6
20260504175403 81 171 5.2 12.2 0.00 0.00 0.00 50 1008.8
20260504174503 81 174 4.3 11.3 0.00 0.00 0.00 47 1008.9
20260504173818 81 176 3.5 11.3 0.00 0.00 0.00 49 1009.0
20260504172703 80 175 4.3 12.2 0.00 0.00 0.00 50 1009.0
20260504171803 80 175 3.5 12.2 0.00 0.00 0.00 49 1008.9
20260504170903 79 180 4.3 11.3 0.00 0.00 0.00 49 1009.0
20260504150903 74 178 4.3 13.9 0.00 0.00 0.00 51 1010.1